Theta_e
310 310 310 310 310 310 310 310 311 311 311 311 311 312 312 312 312 312 313 313 313 312 315 316 315 315 315 316 317 317 320 320 319 318 318 317 318 314 316 316 315 316 317 318 317
310 310 310 310 311 311 311 311 311 311 311 311 311 311 312 312 312 313 313 313 312 312 314 316 315 315 317 318 318 319 320 319 318 317 317 317 316 317 317 318 317 316 317 317 317
311 311 312 312 312 312 312 312 312 312 312 312 312 312 312 312 313 312 314 313 313 312 314 315 314 315 317 317 318 319 319 319 316 315 314 316 316 316 317 319 318 318 317 317 317
312 313 312 312 312 311 311 311 311 311 311 312 312 312 312 312 315 312 314 313 313 313 314 314 314 316 318 319 318 318 318 318 317 315 315 316 316 316 316 317 317 317 316 316 315
311 311 310 310 310 310 311 311 312 312 312 312 311 310 310 310 313 314 313 313 312 312 313 314 315 316 318 317 316 318 318 317 317 315 315 315 316 317 317 316 316 316 314 314 314
311 313 314 315 316 316 317 317 318 318 318 318 317 316 313 309 311 313 313 312 312 313 313 314 315 315 316 316 316 316 315 316 315 315 315 315 316 314 315 315 314 314 314 314 314
316 316 316 315 315 315 314 314 315 315 315 316 316 316 315 317 316 312 312 313 312 313 314 314 314 314 315 315 313 313 315 316 315 313 314 313 315 315 315 315 313 314 314 314 314
315 315 315 314 314 314 314 313 313 312 312 311 312 314 314 316 316 314 310 309 311 313 314 314 313 313 313 312 312 313 313 315 315 312 312 314 316 316 315 312 313 314 314 314 314
317 317 318 318 318 318 318 318 318 318 315 311 310 312 312 313 312 312 310 309 311 312 313 313 312 313 312 315 315 314 315 316 315 312 313 314 315 316 313 312 313 313 313 313 313
319 320 321 321 322 322 322 322 322 318 314 312 310 310 312 312 312 311 311 310 311 311 311 312 312 314 313 314 316 317 315 314 313 314 312 312 313 314 313 312 312 312 313 313 313
321 322 323 323 324 324 324 323 322 319 320 320 319 315 316 313 311 310 311 311 311 311 313 312 314 314 315 314 315 314 313 314 314 314 312 313 313 313 312 312 312 313 313 314 313
324 323 323 323 323 324 324 323 322 320 317 322 322 321 317 312 312 311 310 311 311 313 310 311 313 314 313 312 312 313 313 314 314 313 311 313 313 313 313 313 313 313 313 313 313
324 323 323 322 322 323 323 322 320 320 314 317 315 314 314 313 312 313 311 310 311 311 311 314 315 311 311 312 312 313 313 313 314 312 311 311 314 314 315 313 312 312 312 311 311
322 323 323 322 322 323 323 320 319 318 321 319 310 309 307 309 309 308 309 309 310 312 311 312 311 310 310 311 312 314 314 312 311 312 313 310 315 316 315 315 313 313 311 311 310
322 322 322 322 322 322 322 320 320 316 328 313 308 309 308 307 307 307 308 309 311 311 310 314 311 310 311 312 311 313 309 309 310 311 311 313 313 318 311 315 315 313 310 308 306
320 320 321 320 320 321 322 321 319 322 328 318 308 310 309 307 306 307 308 308 308 308 309 310 307 308 311 308 309 308 310 310 309 311 315 316 314 316 315 314 314 313 306 305 304
319 317 316 316 317 320 321 319 322 325 320 320 311 308 310 309 308 308 311 313 316 317 318 316 314 308 307 310 308 309 311 316 320 318 320 310 315 314 314 312 311 307 305 304 303
314 313 313 313 315 317 318 320 322 320 320 318 316 312 320 311 315 311 315 317 310 311 314 317 319 309 307 311 314 310 314 321 324 324 323 318 321 319 314 310 306 305 305 303 302
310 309 310 311 310 312 316 318 318 319 318 319 318 319 319 315 315 313 313 316 313 309 315 318 318 310 306 307 311 314 313 313 316 317 318 318 318 316 311 311 307 306 305 302 301
308 307 307 307 307 310 314 313 314 316 316 318 319 318 318 317 315 313 316 311 311 307 308 315 319 316 313 306 307 310 309 313 315 319 321 318 316 316 314 311 309 306 303 300 299
304 302 303 304 307 311 312 311 311 312 313 316 316 317 317 317 317 317 317 316 315 312 309 314 315 315 314 313 314 308 311 313 313 316 318 318 315 313 312 308 307 303 299 298 297
296 300 302 307 310 310 311 310 310 311 311 312 313 315 315 314 314 314 314 313 314 313 314 313 315 316 316 314 311 312 314 315 316 315 313 313 314 309 307 304 301 298 296 296 294
298 302 307 309 309 309 310 310 310 310 310 311 310 312 312 312 312 311 311 311 311 312 313 313 314 315 316 313 310 311 312 312 312 312 315 316 317 308 302 300 298 296 295 294 294
298 301 304 307 307 307 307 307 308 306 308 309 309 310 310 310 309 310 310 310 307 309 307 310 312 312 314 314 313 313 312 311 311 312 312 312 310 309 308 305 297 294 294 293 291
297 298 300 306 306 306 305 305 306 306 305 306 306 308 306 306 306 307 306 306 306 303 306 307 309 309 310 310 310 308 307 306 306 306 307 306 306 305 304 296 294 291 292 294 290
295 296 297 298 298 301 303 304 304 304 303 303 304 303 302 303 303 305 303 303 304 302 302 302 305 305 303 304 304 304 303 303 302 301 301 301 301 302 294 292 293 291 291 292 291
293 294 295 295 296 299 300 301 300 299 296 297 297 298 299 299 299 298 297 296 297 299 299 299 301 302 303 302 300 300 300 300 300 300 300 299 298 294 293 292 292 291 290 291 290
Wind_Speed
4 5 6 6 6 7 7 8 8 8 8 8 9 10 11 12 14 15 17 13 10 12 10 9 9 8 7 5 4 4 4 5 4 5 3 4 5 5 6 9 8 11 18 18 23
7 7 7 8 8 9 9 10 10 11 11 11 12 13 13 14 17 21 8 4 7 7 12 11 11 10 4 4 4 6 4 6 5 7 5 5 6 8 7 14 17 17 23 22 21
9 10 10 11 11 12 12 13 13 13 14 13 13 14 16 16 18 2 3 3 2 5 10 12 11 11 7 5 8 6 7 8 9 14 9 9 9 7 12 16 19 17 16 15 21
12 13 13 14 14 15 15 15 15 15 16 16 16 16 17 14 6 1 4 10 12 8 13 14 11 7 6 7 7 6 14 15 7 7 5 8 8 10 17 35 29 26 24 23 26
13 13 14 15 15 15 16 17 17 16 17 17 16 17 17 8 17 20 20 19 13 12 16 17 13 9 8 7 6 9 12 13 17 14 14 16 26 18 29 34 34 28 28 27 25
12 12 12 13 14 15 16 17 17 17 17 17 16 16 16 11 13 10 9 9 10 12 16 17 8 14 4 7 9 3 10 16 13 16 15 12 30 6 22 19 25 20 25 24 24
11 12 12 13 13 14 15 17 18 18 18 17 17 16 18 23 18 18 18 15 13 14 16 18 19 9 5 5 6 5 11 16 17 14 10 10 13 17 29 15 22 26 22 20 23
9 10 10 10 11 12 13 15 16 17 17 16 15 14 13 18 17 18 19 22 17 14 15 16 15 11 6 3 2 6 4 11 4 5 4 10 20 21 16 11 17 22 27 30 36
6 7 7 8 9 10 12 14 14 15 15 13 10 8 9 12 10 12 14 15 12 13 14 11 11 7 5 9 9 8 13 17 16 9 3 12 12 15 10 12 31 33 35 37 34
5 5 7 8 10 11 13 14 13 11 8 5 4 3 12 7 7 7 7 8 7 10 8 7 5 7 5 8 13 14 10 9 11 5 8 12 19 20 32 30 36 38 40 32 26
6 6 7 9 11 13 13 12 6 4 2 7 13 15 22 18 13 8 5 8 8 7 8 6 9 13 21 21 21 16 16 21 20 18 13 22 21 18 27 33 36 38 31 23 19
9 9 12 12 12 11 10 4 6 7 11 17 23 24 26 17 7 7 4 6 7 7 6 3 13 17 10 8 12 17 21 22 21 17 7 18 24 24 23 31 34 31 23 19 17
12 12 10 12 10 6 5 8 12 12 5 10 8 7 5 6 5 9 8 5 4 7 11 18 11 4 13 13 14 18 17 19 21 14 13 13 15 3 9 15 17 15 15 11 10
7 7 8 7 6 2 2 5 12 16 4 2 0 1 0 2 2 1 5 3 2 5 6 10 6 6 4 9 14 21 15 17 15 7 9 5 10 11 14 15 5 13 12 12 18
9 10 11 7 7 3 1 1 12 8 7 1 2 2 3 2 4 4 6 4 3 3 2 7 5 3 9 11 6 9 5 5 4 7 6 6 7 4 2 11 5 9 12 18 20
11 8 7 7 8 7 5 6 6 1 6 2 3 4 5 3 2 4 2 4 3 3 5 13 3 5 6 2 5 0 5 6 2 4 8 9 8 3 2 2 2 11 19 17 19
8 8 8 5 4 4 4 2 2 5 1 3 3 1 2 4 5 8 7 6 5 9 13 12 11 3 5 8 3 2 4 5 6 5 8 4 4 7 12 4 8 12 13 21 24
11 10 8 7 6 7 5 2 9 3 7 1 2 2 3 5 5 4 7 12 3 7 10 10 17 6 5 4 3 4 4 4 5 8 17 5 9 5 5 10 19 21 17 16 19
14 15 15 13 11 8 5 6 6 7 5 5 3 8 10 2 5 2 4 9 4 13 9 5 9 1 5 4 4 5 8 8 13 9 6 10 16 14 6 8 12 12 12 14 15
17 14 17 15 16 13 4 10 7 4 1 3 10 6 14 12 5 2 5 2 1 3 5 3 6 10 2 2 7 8 2 3 3 6 7 8 18 15 12 8 5 9 12 14 15
14 6 8 14 16 12 7 8 8 10 10 6 10 11 10 11 10 10 6 2 4 3 6 11 8 15 1 8 16 4 6 5 3 5 6 14 14 15 5 8 7 9 14 16 17
10 3 10 22 9 6 8 5 6 4 1 3 4 9 13 9 10 10 14 12 1 8 11 7 3 6 19 16 10 11 17 20 13 12 13 17 19 8 11 8 5 4 4 6 10
8 5 15 24 6 9 6 6 9 7 7 4 6 5 2 8 6 11 12 3 6 4 4 3 3 8 7 7 1 6 7 9 8 2 14 14 4 8 12 10 5 2 0 2 7
8 3 6 16 10 7 9 9 9 4 6 12 9 7 7 10 10 10 8 3 6 4 8 2 4 8 13 16 15 10 11 8 9 6 11 11 18 19 17 11 1 2 2 1 2
6 3 5 5 9 7 4 3 4 5 2 3 3 5 0 4 4 8 10 6 3 4 2 1 7 10 13 12 11 13 16 17 17 15 9 15 18 22 17 2 1 3 4 6 5
6 5 4 2 2 4 8 11 18 15 11 7 11 12 5 10 12 12 8 9 13 3 3 2 8 10 14 16 14 16 17 19 19 20 22 24 26 19 1 2 4 6 8 9 8
7 7 4 6 5 6 5 6 4 7 2 3 4 0 3 4 2 3 6 8 8 4 2 3 4 7 17 15 10 10 20 17 19 23 23 23 13 5 2 5 9 9 14 16 13
Wind_Direction
319 325 328 330 331 329 328 327 326 325 323 322 323 323 322 320 314 306 297 281 269 235 223 210 203 197 192 201 185 170 233 243 241 207 224 200 236 207 239 259 244 240 249 273 284
307 310 312 313 313 312 312 313 312 312 313 313 315 315 315 317 315 307 287 275 250 232 222 216 206 193 188 183 199 214 238 246 230 220 242 257 246 278 261 264 257 261 268 280 284
296 300 302 303 304 305 306 307 307 306 305 306 307 308 311 320 322 251 157 45 88 212 213 212 209 195 201 191 199 189 238 247 242 240 253 272 268 247 269 272 264 270 286 278 280
291 295 297 299 301 303 303 303 302 302 302 303 304 302 303 310 300 225 258 299 303 255 218 206 197 186 218 216 203 232 243 244 262 244 242 262 283 260 248 263 277 284 280 279 278
282 287 291 293 296 300 301 301 301 301 302 301 302 300 300 283 264 279 277 281 271 238 222 215 197 199 218 215 201 232 252 251 250 255 254 270 266 266 266 271 283 280 282 286 281
283 286 289 292 295 297 298 297 296 298 298 297 297 295 290 260 280 281 272 262 248 232 225 220 222 225 249 237 222 261 262 272 265 256 245 240 270 259 265 282 287 287 290 286 286
283 288 293 298 302 303 304 302 301 299 296 292 289 284 277 269 272 268 268 261 248 239 232 231 228 209 208 253 252 303 294 288 262 250 231 215 263 234 270 270 279 289 292 293 290
288 294 299 303 307 310 309 306 305 303 298 290 282 276 262 275 270 262 259 258 253 237 234 237 233 230 233 270 266 262 250 279 285 173 208 191 270 278 287 280 283 286 286 283 284
292 301 308 314 317 320 319 319 315 308 301 293 275 238 265 272 278 270 260 250 246 231 225 229 200 216 234 240 266 224 266 261 285 232 201 204 270 284 287 298 292 286 285 281 286
279 298 311 318 323 327 330 329 318 304 299 304 277 235 250 278 293 279 269 232 207 191 174 176 171 212 216 217 247 261 249 250 256 274 234 266 258 277 285 289 281 284 281 286 288
269 286 300 312 320 325 332 345 345 327 313 274 272 259 277 280 276 277 244 185 167 170 199 187 209 216 231 228 246 280 272 271 277 282 297 283 287 285 282 280 279 280 286 291 287
260 276 294 313 324 327 342 28 1 312 298 289 273 256 251 259 271 289 225 186 186 217 141 174 236 244 275 276 255 259 265 273 277 275 285 287 293 288 272 270 272 281 291 290 305
262 271 295 307 320 321 360 14 6 340 266 286 279 276 288 288 224 248 210 204 204 190 211 247 266 251 221 240 260 252 262 269 276 306 273 297 284 246 294 268 290 290 288 310 357
269 260 274 291 297 313 6 25 10 351 273 250 319 14 21 160 80 305 185 163 155 299 246 261 302 245 244 248 247 274 267 267 277 286 282 359 292 293 274 284 334 26 69 61 71
253 269 278 266 277 272 294 334 360 351 288 80 152 167 121 131 134 29 177 150 236 244 219 273 270 214 224 235 223 272 352 297 282 261 294 240 259 321 260 263 181 59 58 73 45
255 262 255 266 263 258 251 288 339 201 249 203 193 180 150 144 127 131 172 180 179 197 207 268 268 242 251 182 200 35 300 273 228 267 262 264 222 100 190 276 351 59 79 54 48
234 240 245 242 237 228 196 280 263 215 104 198 225 211 332 161 182 186 181 214 280 298 295 290 265 248 227 249 133 171 300 299 260 222 268 93 269 273 274 255 4 84 69 50 40
243 240 234 231 220 230 231 123 239 179 243 122 174 180 253 176 235 227 271 279 225 232 279 288 294 197 163 232 141 175 217 207 277 283 291 286 256 266 297 62 65 56 51 46 40
250 251 242 234 233 225 171 221 233 221 225 244 217 262 260 227 253 299 261 281 302 190 227 247 253 128 204 155 178 193 216 242 258 268 273 253 270 277 18 169 72 59 48 44 39
255 253 257 242 222 195 199 248 243 225 178 250 254 242 272 276 246 240 259 122 272 169 336 19 291 222 264 237 225 226 83 219 184 227 231 260 288 273 251 169 70 47 34 26 19
250 226 223 207 185 176 212 227 258 253 260 256 253 259 267 287 267 270 253 238 203 184 187 192 220 281 240 227 259 188 211 212 199 223 284 278 273 312 344 80 71 26 13 13 12
196 178 175 160 172 192 227 211 231 239 342 294 302 257 258 275 273 264 258 251 129 295 273 243 250 246 262 264 247 254 263 252 243 250 247 254 256 106 114 107 99 84 38 2 6
175 135 168 173 197 212 222 229 239 225 230 225 250 237 232 262 270 254 262 290 318 293 289 15 246 275 255 245 177 245 259 272 279 308 250 259 238 110 136 97 58 134 354 21 356
163 141 172 205 230 220 236 252 237 268 250 232 241 245 254 257 252 271 282 357 351 346 344 317 223 254 275 284 308 285 269 263 248 260 276 254 273 274 284 315 356 295 287 261 332
162 186 173 185 224 209 245 223 203 207 245 238 224 195 122 269 291 254 280 285 236 344 259 281 268 278 275 280 279 273 275 265 260 268 258 285 288 279 299 331 10 322 265 236 272
162 154 164 142 90 181 208 240 245 247 247 238 258 279 278 251 251 284 297 271 272 287 284 189 262 288 282 278 259 263 261 264 275 272 264 261 266 287 302 325 262 293 303 284 298
183 162 153 147 167 186 206 215 166 163 94 136 114 294 236 255 204 199 249 257 260 259 274 276 270 270 270 276 288 260 246 260 267 270 271 275 293 97 185 286 302 306 318 303 295